Weather History for Fredericksburg, TX

Change the Weather History Date:

Saturday, December 28, 2013

  Actual Average (KSAT) Record (KSAT)
Temperature  
Mean Temperature 46 °F 51 °F  
Max Temperature 57 °F 62 °F 81 °F (1921)
Min Temperature 34 °F 40 °F 19 °F (1925)
Degree Days  
Heating Degree Days 20 14  
Month to date heating degree days 350  
Since 1 July heating degree days 561  
Cooling Degree Days 0 0  
Month to date cooling degree days 7  
Year to date cooling degree days 3124  
Moisture  
Dew Point 42 °F    
Average Humidity 84    
Maximum Humidity 97    
Minimum Humidity 67    
Precipitation  
Precipitation 0.00 in 0.07 in 1.65 in (1979)
Month to date precipitation 1.72  
Year to date precipitation 32.08  
Snow  
Snow 0.00 in - - ()
Month to date snowfall  
Since 1 July snowfall  
Snow Depth -    
Sea Level Pressure  
Sea Level Pressure 30.14 in    
Wind  
Wind Speed 3 mph (SSW)    
Max Wind Speed 13 mph    
Max Gust Speed 17 mph    
Visibility 10 miles    
Events Rain    
T = Trace of Precipitation, MM = Missing Value Source: NWS Daily Summary

Daily Weather History Graph

Daily Weather History Graph

Search for Another Location

Airport:

Trip Planner

Search our weather history database for the weather conditions in past years. The results will help you decide how hot, cold, wet, or windy it might be!

Date:

Astronomy

Dec. 28, 2013 Rise Set
Actual Time 7:31 AM CST 5:43 PM CST
Civil Twilight 7:04 AM CST 6:10 PM CST
Nautical Twilight 6:34 AM CST 6:40 PM CST
Astronomical Twilight 6:05 AM CST 7:09 PM CST
Moon 3:18 AM CST (12/28) 2:28 PM CST (12/28)
Length of Visible Light 11h 05m
Length of Day
10h 12m
Waning Crescent, 19% of the Moon is Illuminated
Dec 28
Waning Crescent
Jan 1
New
Jan 7
First Quarter
Jan 15
Full
Jan 23
Last Quarter

Hourly Weather History & Observations

Time (CST) Temp. Windchill Dew Point Humidity Pressure Visibility Wind Dir Wind Speed Gust Speed Precip Events Conditions
12:15 AM 38.3 °F - 36.3 °F 93% 30.30 in 10.0 mi Calm Calm - N/A   Clear
12:35 AM 38.3 °F 35.9 °F 36.0 °F 91% 30.30 in 10.0 mi NW 3.5 mph - N/A   Clear
12:55 AM 38.3 °F - 36.0 °F 91% 30.30 in 10.0 mi Calm Calm - N/A   Scattered Clouds
1:15 AM 37.4 °F - 35.6 °F 93% 30.29 in 10.0 mi Calm Calm - N/A   Scattered Clouds
1:35 AM 35.8 °F - 34.5 °F 95% 30.29 in 10.0 mi Calm Calm - N/A   Clear
1:55 AM 36.5 °F - 35.1 °F 95% 30.28 in 10.0 mi Calm Calm - N/A   Mostly Cloudy
2:15 AM 38.3 °F - 36.5 °F 93% 30.28 in 10.0 mi Calm Calm - N/A   Overcast
2:35 AM 38.3 °F 35.9 °F 36.3 °F 93% 30.26 in 10.0 mi WNW 3.5 mph - N/A   Overcast
2:55 AM 39.0 °F - 36.9 °F 92% 30.26 in 10.0 mi Calm Calm - N/A   Overcast
3:15 AM 39.6 °F - 37.4 °F 92% 30.25 in 10.0 mi Calm Calm - N/A   Overcast
3:35 AM 39.6 °F - 37.4 °F 92% 30.25 in 10.0 mi Calm Calm - N/A   Overcast
3:55 AM 39.4 °F - 37.0 °F 91% 30.24 in 10.0 mi Calm Calm - N/A   Overcast
4:15 AM 39.0 °F - 36.9 °F 92% 30.23 in 10.0 mi Calm Calm - N/A Rain Light Rain
4:35 AM 39.0 °F - 37.0 °F 93% 30.23 in 10.0 mi Calm Calm - N/A   Overcast
4:55 AM 39.4 °F - 37.6 °F 93% 30.23 in 10.0 mi Calm Calm - N/A   Overcast
5:15 AM 39.2 °F - 37.2 °F 93% 30.23 in 10.0 mi Calm Calm - N/A   Mostly Cloudy
5:35 AM 37.0 °F - 35.8 °F 95% 30.23 in 10.0 mi Calm Calm - N/A   Scattered Clouds
5:55 AM 35.6 °F - 34.3 °F 95% 30.22 in 10.0 mi Calm Calm - N/A   Scattered Clouds
6:15 AM 35.6 °F - 34.7 °F 97% 30.23 in 10.0 mi Calm Calm - N/A   Clear
6:35 AM 35.1 °F - 34.2 °F 97% 30.23 in 10.0 mi Calm Calm - N/A   Clear
6:55 AM 35.4 °F 31.5 °F 34.5 °F 97% 30.23 in 10.0 mi NW 4.6 mph - N/A   Clear
7:15 AM 34.7 °F 31.8 °F 33.8 °F 97% 30.23 in 10.0 mi NW 3.5 mph - N/A   Clear
7:35 AM 34.2 °F - 33.3 °F 97% 30.22 in 10.0 mi Calm Calm - N/A   Scattered Clouds
7:55 AM 36.0 °F - 35.1 °F 97% 30.22 in 10.0 mi Calm Calm - N/A   Mostly Cloudy
8:15 AM 37.2 °F - 36.1 °F 96% 30.22 in 10.0 mi Calm Calm - N/A   Overcast
8:35 AM 38.3 °F - 37.4 °F 97% 30.23 in 10.0 mi Calm Calm - N/A   Overcast
8:55 AM 39.4 °F - 37.9 °F 95% 30.23 in 10.0 mi Calm Calm - N/A   Overcast
9:15 AM 40.6 °F - 39.2 °F 95% 30.23 in 10.0 mi Calm Calm - N/A   Overcast
9:35 AM 41.9 °F - 40.3 °F 94% 30.23 in 10.0 mi Calm Calm - N/A   Overcast
9:55 AM 43.7 °F - 41.7 °F 93% 30.23 in 10.0 mi Calm Calm - N/A   Mostly Cloudy
10:15 AM 45.5 °F - 43.5 °F 93% 30.23 in 10.0 mi Calm Calm - N/A   Overcast
10:35 AM 47.5 °F - 44.2 °F 89% 30.22 in 10.0 mi Calm Calm - N/A   Overcast
10:55 AM 50.0 °F - 43.9 °F 79% 30.21 in 10.0 mi WSW 5.8 mph - N/A   Overcast
11:15 AM 51.4 °F - 43.9 °F 75% 30.20 in 10.0 mi SSW 6.9 mph - N/A   Mostly Cloudy
11:35 AM 53.2 °F - 42.4 °F 67% 30.18 in 10.0 mi SSW 4.6 mph - N/A   Scattered Clouds
11:55 AM 53.8 °F - 43.3 °F 68% 30.17 in 10.0 mi SSW 5.8 mph - N/A   Clear
12:15 PM 54.9 °F - 44.1 °F 67% 30.16 in 10.0 mi South 6.9 mph - N/A   Clear
12:35 PM 55.2 °F - 44.2 °F 67% 30.14 in 10.0 mi SSW 9.2 mph - N/A   Clear
12:55 PM 55.8 °F - 44.8 °F 67% 30.12 in 10.0 mi SSW 10.4 mph - N/A   Clear
1:15 PM 56.1 °F - 45.3 °F 67% 30.10 in 10.0 mi SSW 11.5 mph - N/A   Mostly Cloudy
1:35 PM 56.3 °F - 45.5 °F 67% 30.09 in 10.0 mi SSW 6.9 mph - N/A   Mostly Cloudy
1:55 PM 57.2 °F - 46.2 °F 67% 30.08 in 10.0 mi South 8.1 mph 16.1 mph N/A   Scattered Clouds
2:15 PM 56.7 °F - 45.9 °F 67% 30.07 in 10.0 mi SSW 8.1 mph - N/A   Mostly Cloudy
2:35 PM 56.7 °F - 45.7 °F 67% 30.06 in 10.0 mi SSW 8.1 mph - N/A   Overcast
2:55 PM 55.9 °F - 45.1 °F 67% 30.05 in 10.0 mi South 9.2 mph - N/A   Overcast
3:15 PM 55.6 °F - 45.5 °F 69% 30.04 in 10.0 mi South 9.2 mph - N/A   Overcast
3:35 PM 55.4 °F - 45.3 °F 69% 30.04 in 10.0 mi South 10.4 mph - N/A   Overcast
3:55 PM 54.9 °F - 45.5 °F 71% 30.04 in 10.0 mi SSW 9.2 mph - N/A   Overcast
4:15 PM 55.9 °F - 45.5 °F 68% 30.03 in 10.0 mi SW 5.8 mph - N/A   Mostly Cloudy
4:35 PM 55.6 °F - 45.1 °F 68% 30.02 in 10.0 mi South 8.1 mph - N/A   Scattered Clouds
4:55 PM 55.0 °F - 45.0 °F 69% 30.02 in 10.0 mi SSW 5.8 mph - N/A   Clear
5:15 PM 54.5 °F - 45.5 °F 72% 30.02 in 10.0 mi South 9.2 mph - N/A   Mostly Cloudy
5:35 PM 53.8 °F - 45.5 °F 74% 30.02 in 10.0 mi South 9.2 mph - N/A   Overcast
5:55 PM 53.1 °F - 45.5 °F 75% 30.02 in 10.0 mi SSW 6.9 mph - N/A   Overcast
6:15 PM 52.7 °F - 45.5 °F 76% 30.02 in 10.0 mi SSW 9.2 mph - N/A   Overcast
6:35 PM 52.0 °F - 45.7 °F 79% 30.02 in 10.0 mi SSW 6.9 mph - N/A   Overcast
6:55 PM 51.3 °F - 45.7 °F 81% 30.02 in 10.0 mi SSW 6.9 mph - N/A   Overcast
7:15 PM 50.2 °F - 45.5 °F 84% 30.02 in 10.0 mi SSW 5.8 mph - N/A   Scattered Clouds
7:35 PM 48.6 °F - 44.8 °F 87% 30.02 in 10.0 mi South 4.6 mph - N/A   Clear
7:55 PM 48.0 °F - 45.0 °F 89% 30.02 in 10.0 mi SSW 5.8 mph - N/A   Clear
8:15 PM 48.7 °F - 45.9 °F 90% 30.02 in 10.0 mi SSW 6.9 mph - N/A   Mostly Cloudy
8:35 PM 49.3 °F - 45.9 °F 88% 30.02 in 10.0 mi SSW 11.5 mph 17.3 mph N/A   Overcast
8:55 PM 49.5 °F - 45.9 °F 87% 30.02 in 10.0 mi SW 9.2 mph - N/A   Overcast
9:15 PM 49.6 °F - 45.9 °F 87% 30.02 in 10.0 mi SSW 10.4 mph - N/A   Overcast
9:35 PM 49.6 °F - 45.9 °F 87% 30.02 in 10.0 mi SSW 11.5 mph - N/A   Overcast
9:55 PM 49.5 °F - 45.7 °F 87% 30.02 in 10.0 mi SSW 10.4 mph - N/A   Overcast
10:15 PM 49.6 °F - 45.9 °F 87% 30.02 in 10.0 mi SSW 8.1 mph - N/A   Overcast
10:35 PM 49.6 °F - 45.7 °F 86% 30.02 in 10.0 mi SW 6.9 mph - N/A   Overcast
10:55 PM 49.6 °F - 45.9 °F 87% 30.02 in 10.0 mi SW 12.7 mph - N/A   Overcast
11:15 PM 49.6 °F - 46.0 °F 87% 30.02 in 10.0 mi SW 9.2 mph - N/A   Overcast
11:35 PM 49.8 °F - 45.9 °F 86% 30.02 in 10.0 mi SW 10.4 mph 17.3 mph N/A   Overcast
11:55 PM 49.6 °F - 45.7 °F 86% 30.01 in 10.0 mi SSW 9.2 mph - N/A   Overcast